Overview Statistics Trail Chart Weather Telemetry Raw packets
 

This is the latest recevied weather packets stored in our database for station/object 9W2XPF-13. If no packets are shown the sender has not sent any weather packets the latest 10 day(s).

<< 132 133 134 135 136 137 138 >>
Time Temp. Humidity Pressure Rain* Wind** Luminosity Snow
1777169522 31.11° C 77% 1009.9 hPa 0 mm - - -
1777169404 31.11° C 77% 1009.9 hPa 0 mm - - -
1777169282 31.11° C 77% 1009.8 hPa 0 mm - - -
1777169162 31.11° C 77% 1009.9 hPa 0 mm - - -
1777169042 31.67° C 75% 1009.9 hPa 0 mm - - -
1777168922 31.67° C 75% 1009.8 hPa 0 mm - - -
1777168803 31.11° C 76% 1009.8 hPa 0 mm - - -
1777168682 30.56° C 78% 1009.7 hPa 0 mm - - -
1777168562 30° C 80% 1009.7 hPa 0 mm - - -
1777168442 30° C 80% 1009.7 hPa 0 mm - - -
1777168322 30° C 81% 1009.7 hPa 0 mm - - -
1777168202 30° C 80% 1009.7 hPa 0 mm - - -
1777168082 30° C 81% 1009.5 hPa 0 mm - - -
1777167962 29.44° C 83% 1009.6 hPa 0 mm - - -
1777167842 28.89° C 85% 1009.4 hPa 0 mm - - -
1777167723 28.89° C 86% 1009.6 hPa 0 mm - - -
1777167602 28.89° C 86% 1009.7 hPa 0 mm - - -
1777167482 28.33° C 89% 1009.6 hPa 0 mm - - -
1777167362 28.33° C 89% 1009.5 hPa 0 mm - - -
1777167242 27.78° C 90% 1009.6 hPa 0 mm - - -
1777167122 27.78° C 91% 1009.5 hPa 0 mm - - -
1777167002 27.78° C 92% 1009.6 hPa 0 mm - - -
1777166882 27.78° C 92% 1009.5 hPa 0 mm - - -
1777166762 27.78° C 93% 1009.6 hPa 0 mm - - -
1777166642 27.78° C 93% 1009.7 hPa 0 mm - - -

* Rain latest hour (hover to see other rain measurements)
** Current wind speed in m/s (hover to see current wind gust speed)